Location: Byszew
(52.1813°N, 19.2693°E)
Time: 17:33:22
(UTC+00:00)

SJ-6B - Pass Details

Date: 03 March 2021
Orbit: 509 x 581 km, 97.6° (Epoch: 17 April)

Event Time Altitude Azimuth Distance (km) Brightness Sun altitude
Exits shadow 17:47:15 13° 137° (SE) 1,684 4.8 -13.2°
Maximum altitude 17:50:35 42° 69° (ENE) 826 3.3 -13.7°
Drops below altitude 10° 17:54:26 10° 358° (N) 1,872 5.6 -14.3°
Sets 17:56:38 0° 352° (N) 2,762 6.6 -14.6°
